Preview of NWS' New Version of Forecast
This preview is not operational and should not be used for support decisions.

Regional Weather Roundup (RWR)

Issued by National Weather Service (NWS)

                            
000
ASUS45 KABQ 210010
RWRNM 
NEW MEXICO REGIONAL WEATHER ROUNDUP
NATIONAL WEATHER SERVICE ALBUQUERQUE NM
600 PM MDT FRI SEP 20 2019

NOTE: "FAIR" MEANS FEW OR NO CLOUDS BELOW 12,000 FEET AGL WITH NO
       SIGNIFICANT WEATHER OR OBSTRUCTIONS TO VISION.

      THIS PRODUCT IS RELEASED AS TWO VERSIONS.  ONE VERSION NEAR
      THE TOP OF THE HOUR CONTAINING PRELIMINARY DATA FROM ALBUQUERQUE
      AND OTHER STATIONS.  A FINAL VERSION WITH ADDITIONAL DATA IS 
      ISSUED ABOUT 10 MINUTES AFTER THE HOUR.
 
NMZ501-503-504-510>518-210100-
NORTHWEST PLATEAU/NORTHCENTRAL MOUNTAINS
  
CITY           SKY/WX    TMP DP  RH WIND       PRES   REMARKS
FARMINGTON     FAIR      79  18  10 SW14G30   29.93F                  
6HR MIN TEMP:  76; 6HR MAX TEMP:  83;                                

LOS ALAMOS     FAIR      74  24  15 S14G20    30.07F                  
SANTA FE       FAIR      79  27  14 W17       30.01F                  
6HR MIN TEMP:  73; 6HR MAX TEMP:  82;                                

TAOS             N/A     75  32  20 SW16      30.07S                  

$$
NMZ402-403-502-505>509-210100-
WESTCENTRAL MOUNTAINS/SOUTHWEST MOUNTAINS
  
CITY           SKY/WX    TMP DP  RH WIND       PRES   REMARKS
GALLUP         FAIR      75  23  14 SW21G35   30.05R                  
6HR MIN TEMP:  73; 6HR MAX TEMP:  79; 6HR PCP: TRACE;                

GRANTS         FAIR      76  26  15 W6G22     30.06S                  
SILVER CITY    FAIR      80  41  24 W14       30.02F                  

$$
NMZ407-409-411-412-210100-
SOUTHERN DESERTS
  
CITY           SKY/WX    TMP DP  RH WIND       PRES   REMARKS
DEMING         FAIR      87  39  18 W16       29.94S                  
6HR MIN TEMP:  82; 6HR MAX TEMP:  88;                                

LAS CRUCES     FAIR      87  42  20 SW7       29.96S                  
HOLLOMAN AFB   FAIR      89  39  16 SW14G22   29.93R                  
ALAMOGORDO     FAIR      88  41  19 SW9       29.93S                  
T OR C         FAIR      87  33  14 SW9       29.94S                  
6HR MIN TEMP:  81; 6HR MAX TEMP:  90;                                


$$
NMZ519>523-210100-
CENTRAL VALLEYS/CENTRAL HIGHLANDS
  
CITY           SKY/WX    TMP DP  RH WIND       PRES   REMARKS
ALBUQUERQUE    FAIR      84  30  14 SW17      29.95S                  
6HR MIN TEMP:  76; 6HR MAX TEMP:  85;                                

CLINES CORNERS FAIR      74  35  24 W18G29    30.09S                  
6HR MIN TEMP:  63; 6HR MAX TEMP:  79; 6HR PCP: TRACE;                

BELEN          FAIR      85  26  11 SW16      29.94S                  
6HR MIN TEMP:  79; 6HR MAX TEMP:  88;                                

SOCORRO        FAIR      86  29  13 SW12G22   29.94S                  
6HR MIN TEMP:  80; 6HR MAX TEMP:  89;                                


$$
NMZ524>526-539-540-210100-
SOUTHCENTRAL MOUNTAINS
  
CITY           SKY/WX    TMP DP  RH WIND       PRES   REMARKS
RUIDOSO        FAIR      72  43  35 SW14      30.13S                  

$$
NMZ527>531-210100-
NORTHEAST HIGHLANDS/NORTHEAST PLAINS
  
CITY           SKY/WX    TMP DP  RH WIND       PRES   REMARKS
RATON          FAIR      79  31  17 W16G23    29.95S                  
6HR MIN TEMP:  77; 6HR MAX TEMP:  84;                                

CLAYTON        FAIR      76  55  48 S25G35    29.92R                  
6HR MIN TEMP:  74; 6HR MAX TEMP:  81;                                


$$
NMZ532>537-210100-
EASTCENTRAL PLAINS
  
CITY           SKY/WX    TMP DP  RH WIND       PRES   REMARKS
TUCUMCARI      LGT RAIN  71  64  78 SW21G35   29.91R                  
6HR MIN TEMP:  71; 6HR MAX TEMP:  86; 6HR PCP: TRACE;                

CANNON AFB     FAIR      81  63  53 S12       29.95F                  
6HR MIN TEMP:  72; 6HR MAX TEMP:  82;                                

CLOVIS AIRPORT FAIR      77  65  66 SE16G23   29.96S                  

$$
NMZ028-029-033-538-210100-
SOUTHEAST PLAINS
  
CITY           SKY/WX    TMP DP  RH WIND       PRES   REMARKS
ROSWELL        FAIR      89  60  37 SE14      29.87S                  
6HR MIN TEMP:  78; 6HR MAX TEMP:  90;                                

ARTESIA        FAIR      88  61  40 SE9G16    29.88F                  
CARLSBAD       PTSUNNY   92  56  29 SW3       29.84F                  
6HR MIN TEMP:  80; 6HR MAX TEMP:  92;                                



$$